Regional Weather Roundup
Issued by NWS

Home | Current Version | Previous Version | Graphics & Text | Print | Product List | Glossary Off
Versions: 1 2 3 4 5 6 7 8 9 10 11 12 13 14 15 16 17 18 19 20 21 22 23 24 25 26 27 28 29 30 31 32 33 34 35 36 37 38 39 40 41 42 43 44 45 46 47 48 49 50

000
ASUS43 KTOP 270059
RWRKS

WEATHER ROUNDUP FOR KANSAS
NATIONAL WEATHER SERVICE GOODLAND KS
800 PM CDT MON SEP 26 2016

NOTE:  "FAIR" INDICATES FEW OR NO CLOUDS BELOW 12,000 FEET WITH NO
SIGNIFICANT WEATHER AND/OR OBSTRUCTIONS TO VISIBILITY.

KSZ001>006-013>018-027>032-041>047-270200-
NORTHWEST KANSAS

CITY           SKY/WX    TMP DP  RH WIND       PRES   REMARKS
GOODLAND       CLEAR     64  40  41 CALM      30.23R
HAYS           CLEAR     66  39  37 E7        30.16R
HILL CITY      CLEAR     62  51  67 CALM      30.17R
RUSSELL        CLEAR     63  48  58 SE9       30.15S
$$

KSZ061>065-074>080-084>089-270200-
SOUTHWEST KANSAS

CITY           SKY/WX    TMP DP  RH WIND       PRES   REMARKS
DODGE CITY     CLEAR     64  37  36 S7        30.20S
ELKHART          N/A     66  35  31 SE5         N/A
GARDEN CITY    CLEAR     65  34  31 SW8       30.20S
GREAT BEND     CLEAR     63  43  48 S9        30.17R
LIBERAL        CLEAR     64  30  27 S6        30.24S
$$

KSZ066>073-081>083-090>101-270200-
SOUTHEAST KANSAS

CITY           SKY/WX    TMP DP  RH WIND       PRES   REMARKS
CHANUTE        CLEAR     60  53  77 CALM      30.16S
COFFEYVILLE    CLEAR     61  50  67 CALM      30.16S
HUTCHINSON     CLEAR     59  49  69 CALM      30.18R
MEDICINE LODGE   N/A     65  44  46 S7        30.19S
PARSONS        CLEAR     55  51  86 CALM      30.18S
WICHITA INTL   PTCLDY    60  50  69 SW5       30.18R
WICHITA JABRA  CLEAR     64  46  52 CALM      30.18S
WINFIELD       CLEAR     65  49  56 NW3       30.19S
$$

KSZ007>012-019>026-033>040-048>060-102>105-270200-
NORTHEAST KANSAS

CITY           SKY/WX    TMP DP  RH WIND       PRES   REMARKS
CONCORDIA      CLEAR     62  46  55 SW10      30.13F
EMPORIA        CLEAR     63  47  55 W3        30.17S
LAWRENCE       CLEAR     57  54  89 CALM      30.13F
MANHATTAN      CLEAR     62  49  62 SW6       30.14S
OLATHE IND     CLEAR     62  48  60 SW5       30.14F
OLATHE EXE     CLEAR     61  49  64 CALM      30.14S
SALINA         CLEAR     64  49  57 S6        30.15F
TOPEKA BILLARD CLEAR     64  48  56 SW6       30.13F
TOPEKA FORBES  CLEAR     62  50  64 SW7       30.14F
$$



USA.gov is the U.S. government's official web portal to all federal, state and local government web resources and services.